Location: Gisborne
(38.6530°S, 178.0040°E)
Time: 08:11:09
(UTC+13:00)

DMSP B5D2-2 - Pass Details

Date: 24 January 2019
Orbit: 790 x 806 km, 98.4° (Epoch: 20 February)

Event Time Altitude Azimuth Distance (km) Brightness Sun altitude
Rises 20:48:58 0° 27° (NNE) 3,296 6.8 -4.2°
Reaches altitude 10° 20:51:20 10° 31° (NNE) 2,372 6.0 -4.6°
Maximum altitude 20:56:26 55° 107° (ESE) 965 4.3 -5.5°
Drops below altitude 10° 21:01:35 10° 184° (S) 2,393 7.1 -6.3°
Sets 21:03:58 0° 187° (S) 3,328 7.9 -6.7°
